Гастелло

Россия / Магаданская область     61°33′17″N   147°59′49″E
темп.,
°C
ветер,
м/с
пор.,
м/с
влажн.,
%
обл.,
%
осадки,
мм/ч
давл.,
гПа
погр.,
м
27 октября, ср
ср2723:00−21юз1110045 0.0 10179
02:00−21ююз1110035 0.0 10189
05:00−21ю001005 0.0 10189
08:00−21сз00995 0.0 10199
11:00−16сз00895 0.0 101826
14:00−12вюв00833 0.0 101522
17:00−17всв008912 0.0 10179
20:00−19юз009312 0.0 10199
28 октября, чт
чт2823:00−20юз11965 0.0 10209
02:00−21юз11975 0.0 10209
05:00−21юз11965 0.0 10209
08:00−22юз11975 0.0 10209
11:00−16юз11905 0.0 101929
14:00−12ююз11875 0.0 101629
17:00−16ю11945 0.0 10169
20:00−18ю2210053 0.0 10189
29 октября, пт
пт2923:00−18ю2210099 0.0 101810
02:00−17ююз2210078 0.0 101710
05:00−19ююз2210091 0.1 10179
08:00−20ююз2110099 0.0 10189
11:00−16зюз119898 0.1 101734
14:00−13зсз229581 0.0 101679
17:00−17зсз119997 0.0 10189
20:00−21з1110080 0.0 10209
30 октября, сб
сб3023:00−22зюз1110092 0.0 10229
02:00−23зюз1110036 0.0 10229
05:00−25зюз11955 0.0 10239
08:00−25з11955 0.0 10249
11:00−21зсз11895 0.0 102325
14:00−17сз22835 0.0 102135
17:00−22ссз229372 0.0 10239
20:00−24ссз229596 0.0 10259
31 октября, вс
вс3123:00−22ссз2297100 0.0 102410
02:00−21сз229976 0.0 102417
05:00−25ссз2210090 0.1 10269
08:00−26сз2210080 0.0 10289
11:00−23ссз239875 0.0 102774
14:00−20ссз249434 0.0 1026173
17:00−25ссз221005 0.0 10289
20:00−27сз1110019 0.0 10309